Location: Recife
(8.0585°S, 34.8848°W)
Time: 21:15:38
(UTC-03:00)

A-11 Canister half - Pass Details

Date: 23 April 2026
Orbit: 1523 x 1684 km, 47.3° (Epoch: 16 May)

Event Time Altitude Azimuth Distance (km) Brightness Sun altitude
Rises 16:06:11 0° 195° (SSW) 4,683 11.5 15.4°
Reaches altitude 10° 16:11:18 10° 172° (S) 3,714 10.8 14.2°
Maximum altitude 16:15:59 15° 141° (SE) 3,381 10.4 13.1°
Drops below altitude 10° 16:20:41 10° 110° (ESE) 3,757 10.5 12.0°
Sets 16:25:51 0° 88° (E) 4,773 11.0 10.7°
